Other Public Products
Issued by NWS Grand Forks, ND

Home | Current Version | Previous Version | Graphics & Text | Print | Product List | Glossary On
Versions: 1 2 3 4 5 6 7 8 9 10 11 12 13 14 15 16 17 18 19 20 21 22 23 24 25 26 27 28 29 30 31 32 33 34 35 36 37 38 39 40 41 42 43 44 45 46 47 48 49 50
000
FPUS83 KFGF 222010
OPUFGF
PRAIRIE TO PINES WEATHER ROUNDUP
NATIONAL WEATHER SERVICE EASTERN NORTH DAKOTA/GRAND FORKS ND
300 PM CDT TUE JUL 22 2014

 **SATELLITE DATA USED TO AUGMENT SKY COVER AT AUTOMATED STATIONS**
 *****  WEATHER ACROSS EASTERN NORTH DAKOTA  *****

CITY           SKY/WX    TMP DP  RH WIND       PRES   REMARKS
GRAND FORKS    SUNNY     76  58  53 N13G20    30.16R
GRAND FORKS AF SUNNY     76  59  57 NW12      30.18R
GRAND CITY NWS   N/A     77 N/A N/A VRB6        N/A
BUXTON         NOT AVBL
DEVILS LAKE    SUNNY     75  55  50 N5        30.18S
FARGO          SUNNY     78  57  48 NW17G25   30.15R
WAHPETON ARPT  PTCLDY    77  54  44 N17G24    30.13S
$$

 *****  WEATHER ACROSS CENTRAL AND WESTERN NORTH DAKOTA  *****

CITY           SKY/WX    TMP DP  RH WIND       PRES   REMARKS
JAMESTOWN      MOSUNNY   78  60  53 N7        30.18S
BISMARCK       PTSUNNY   79  62  56 W8        30.21R
MINOT          MOSUNNY   78  60  53 N5        30.20R
MINOT AFB      MOSUNNY   76  61  59 N3        30.20R
GARRISON         N/A     76  62  62 VRB5      30.20F
WILLISTON      MOSUNNY   86  54  33 MISG      30.17S
DICKINSON      SUNNY     78  64  61 E7        30.21R
HETTINGER      MOSUNNY   81  62  52 E12G21    30.22S
$$

 *****  OTHER OBSERVATIONS NORTHEAST NORTH DAKOTA  *****

CITY           SKY/WX    TMP DP  RH WIND       PRES   REMARKS
WALHALLA       FAIR      75  55  50 N12         N/A
LANGDON        MOCLDY    75  59  57 N7        30.20S
CAVALIER       FAIR      75  57  53 N6        30.17S
GRAFTON        FAIR      75  55  50 NW12      30.17R
CANDO          MOCLDY    75  59  57 NE5       30.20S
FORT TOTTEN      N/A     78  61  54 N3        29.95
ROLLA            N/A     73  57  56 N5        30.22R
RUGBY          FAIR      75  61  60 NW5       30.19R
 ***** THE ABOVE OBSERVATIONS ARE NON NWS ARE NOT QUALITY
        CONTROLLED AND MAY MIS-REPORT RAIN FOR SNOW...
$$

 *****  OTHER OBSERVATIONS SOUTHEAST NORTH DAKOTA *****

CITY           SKY/WX    TMP DP  RH WIND       PRES   REMARKS
COOPERSTOWN    NOT AVBL
VALLEY CITY    FAIR      77  59  53 N8        30.19R
OAKES          NOT AVBL
GWINNER        CLEAR     79  57  47 N10G20    30.18R
BUFFALO        NOT AVBL
WYNDMERE       NOT AVBL
 ***** THE ABOVE OBSERVATIONS ARE NON NWS ARE NOT QUALITY
       CONTROLLED AND MAY MIS-REPORT RAIN FOR SNOW...
$$

  *****  WEATHER ACROSS NORTHERN MINNESOTA  *****

CITY           SKY/WX    TMP DP  RH WIND       PRES   REMARKS
FLAG ISLAND    MOSUNNY   73  48  40 NW13      30.09R
WARROAD        NOT AVBL
ROSEAU         MOSUNNY   77  55  47 NW13G18   30.13R
HALLOCK        SUNNY     75  55  50 N13       30.16R
THF RVR FALLS  SUNNY     73  52  46 NW15      30.15R
HALSTAD          N/A     76  55  48 N13         N/A
FOSSTON        SUNNY     72  54  53 NW14G23   30.15R
BAUDETTE       SUNNY     75  52  44 NW15      30.12R
WASKISH        SUNNY     75  54  46 NW9G20    30.10R
CROOKSTON      SUNNY     75  55  50 N17G24    30.16R
$$
  *****  WEATHER ACROSS CENTRAL AND WEST MINNESOTA  *****

CITY           SKY/WX    TMP DP  RH WIND       PRES   REMARKS
BEMIDJI        SUNNY     74  51  44 N17       30.12R
PARK RAPIDS    SUNNY     77  50  38 N16G25    30.11R
WADENA         MOSUNNY   75  52  43 N14G26    30.10S
DETROIT LAKES  SUNNY     73  54  49 N14G21    30.16R
MOORHEAD       SUNNY     75  63  64 N15       30.16R
FERGUS FALLS   PTSUNNY   75  52  43 N13G20    30.12R
ELBOW LAKE     FAIR      73  58  57 N14G22    30.13R
MORRIS MN      MOSUNNY   79  57  47 N17       30.13R
STAPLES        MOSUNNY   77  52  41 N12G22    30.09R
WHEATON        PTSUNNY   73  57  56 NW15G22   30.16R
$$
  *****  WEATHER ELSEWHERE ACROSS MINNESOTA  *****

CITY           SKY/WX    TMP DP  RH WIND       PRES   REMARKS
DULUTH         MOSUNNY   79  57  46 NW18G25   30.02R
INTRNTL FALLS  PTSUNNY   74  53  48 NW16G23   30.06R
ELY            MOSUNNY   72  57  60 NW13      30.02R
CLOQUET        MOSUNNY   79  55  44 NW17G24   30.03R
BRAINERD       SUNNY     78  53  41 NW17      30.07R
HIBBING        MOSUNNY   77  57  50 NW22G28   30.04R
ALEXANDRIA     PTSUNNY   75  57  53 NW17G23   30.13R
SAINT CLOUD    SUNNY     84  56  38 N12G21    30.06R
MINNEAPOLIS    MOSUNNY   85  60  42 NW17G25   30.03R
$$

  *****  WEATHER ACROSS SOUTH DAKOTA  *****

CITY           SKY/WX    TMP DP  RH WIND       PRES   REMARKS
SIOUX FALLS    MOSUNNY   81  63  54 NE12G20   30.14R
BROOKINGS      NOT AVBL
WATERTOWN      PTSUNNY   79  56  45 NE13G25   30.16R
HURON          SUNNY     81  60  48 N13       30.16R
SISSETON         N/A     79  59  50 N14       30.14R
ABERDEEN       SUNNY     79  61  53 NE13      30.17R
MITCHELL       MOSUNNY   83  62  49 NE7G17    30.16R
PIERRE         SUNNY     86  57  37 E9        30.17R
MOBRIDGE       SUNNY     83  60  45 MISG      30.18R
RAPID CITY     SUNNY     85  63  47 SE12G17   30.23R
$$

  *****  SOME WEATHER IN NEARBY STATES *****

CITY           SKY/WX    TMP DP  RH WIND       PRES   REMARKS
GLASGOW MT     MOSUNNY   84  50  30 VRB3      30.17S
GREAT FALLS MT FAIR      80  52  37 VRB5      30.18F
CHEYENNE WY    SUNNY     84  52  33 VRB6G16   30.38S
SCOTTSBLUFF NE SUNNY     90  56  31 E9        30.25S
OMAHA NE       MOSUNNY   91  68  46 N8        30.04S HX  95
DES MOINES IA  CLOUDY    90  77  65 N15       30.01R HX 103
DAVENPORT IA   MOSUNNY   87  77  72 W9G20     29.98R HX  99
CHICAGO IL     MOSUNNY   89  70  53 SW13G23   29.93F HX  94
EAU CLAIRE WI  MOSUNNY   85  65  51 NW15      29.98R
LA CROSSE WI   SUNNY     89  68  49 N14       29.96R HX  93
$$

  *****  SOME NATIONAL WEATHER *****

CITY           SKY/WX    TMP DP  RH WIND       PRES   REMARKS
LA GUARDIA NY  MOSUNNY   84  66  54 S17       30.08F
RALEIGH NC     PTSUNNY   82  71  69 VRB3      30.12S
ATLANTA GA     PTSUNNY   81  69  67 E8        30.10F
NEW ORLEANS LA PTSUNNY   86  76  71 S7        30.00F HX  96
OKLAHOMA CITY  MOSUNNY   94  72  48 VRB5      30.08F HX 102
ALBUQUERQUE NM MOSUNNY   92  47  21 CALM      30.25F
SALT LAKE CITY FAIR      95  26   8 VRB3      30.18F
LOS ANGELES CA FAIR      75  61  61 W21       30.06S
BOISE ID       FAIR      90  47  22 VRB7      30.11F
SEATTLE WA     CLOUDY    61  52  72 S7        30.10R
$$

*** WEATHER ACROSS MANITOBA...SASKATCHEWAN AND ONTARIO ***
                ***ONTARIO***

CITY           SKY/WX    TMP DP  RH WIND       PRES   REMARKS
GERALDTON      LGT RAIN  59  57  94 N17       29.87
THUNDER BAY    PTSUNNY   72  59  64 N16G31    29.91R
SIOUX LOOKOUT  PTSUNNY   70  54  56 N14G22    30.03R
TORONTO        SUNNY     86  59  39 S13G18    29.98F
BIG TROUT LK   PTSUNNY   66  46  48 NW7G20    30.06R
PICKLE LAKE    PTSUNNY   64  48  55 N8        30.02R
DRYDEN         PTSUNNY   73  50  43 NW9G21    30.05R
KENORA         PTSUNNY   75  52  43 N12G21    30.10R
$$
                *** MANITOBA***

CITY           SKY/WX    TMP DP  RH WIND       PRES   REMARKS
BRANDON        PTSUNNY   75  57  53 CALM      30.20R
DAUPHIN        MOSUNNY   72  59  64 N7        30.21R
ISLAND LAKE    MOSUNNY   66  45  45 N13       30.16R
PILOT MOUND      N/A     72  57  60 N6          N/A
THE PAS        MOSUNNY   72  48  43 W3        30.22S
THOMPSON       PTSUNNY   68  48  49 W12       30.18S
WINNIPEG       PTSUNNY   75  52  43 NW14G22   30.16R
LYNN LAKE      PTSUNNY   72  43  35 N9        30.21R
CHURCHILL      MOSUNNY   63  48  59 E8        30.06S
GILLAM         PTSUNNY   66  50  55 W8        30.14R
$$
                ***SASKATCHEWAN***

CITY           SKY/WX    TMP DP  RH WIND       PRES   REMARKS
ESTEVAN        PTSUNNY   75  59  57 E3        30.22R
KINDERSLEY     PTSUNNY   73  59  60 SE9       30.22S
LLOYDMINSTER   PTSUNNY   73  55  53 S8        30.21S
PRINCE ALBERT  CLOUDY    73  50  43 SE5       30.23S
REGINA         MOSUNNY   75  50  41 E5        30.24R
YORKTON        PTSUNNY   73  50  43 N6        30.24R



USA.gov is the U.S. government's official web portal to all federal, state and local government web resources and services.